Warning: Javascript must be enabled to use all the features on this page!


Page Loading - Please Wait...

Click to hideNews Bulletins

USGS 02110704 WACCAMAW RIVER AT CONWAY MARINA AT CONWAY, SC

PROVISIONAL DATA SUBJECT TO REVISION

Click to hidestation-specific text
Funding for this site is provided by the cooperators / programs below:
Click to go to the Horry County Stormwater web page

Horry County Stormwater

Click to go to the Santee Cooperweb page

Santee Cooper

Click to go to the City of Conway's web page

City of Conway, SC


This station managed by the South Atlantic WSC Conway Field Office.

Available Parameters Available Period
All 9 Available Parameters for this site
  
00010 Temperature, water 2007-10-01  2018-09-19
00060 Discharge 2007-10-01  2018-10-13
00065 Gage height 2014-04-09  2018-10-17
00095 Specific cond at 25C 2007-10-01  2018-09-19
00300 Dissolved oxygen 2007-10-01  2018-09-19
00400 pH 2007-10-01  2018-09-19
63680 Turbidity, Form Neph 2007-10-01  2018-09-19
72137 Discharge,tide fltrd 2007-10-01  2018-06-20
72255 Mean water velocity 2007-10-01  2018-09-19

Graph
Graph w/ stats
Graph w/o stats
Graph w/ (up to 3) parms
Table
Tab-separated
Days  (13)
 

  -- or --
Begin date
 

End date
 

Summary of all available data for this site
Instantaneous-data availability statement
Gage height, feet
TIMESep 15Sep 16Sep 17Sep 18Sep 19Sep 20Sep 21Sep 22Sep 23Sep 24Sep 25Sep 26Sep 27Sep 28
00:00 EDT8.38P  10.27P  13.15P  15.44P  15.27P  15.03P  16.25P  18.11P  19.62P  20.51P  20.97P  21.15P  21.09P  20.83P  
00:15 EDT8.38P  10.30P  13.18P  15.36P  15.24P  15.04P  16.28P  18.14P  19.63P  20.52P  20.98P  21.13P  21.08P  20.82P  
00:30 EDT8.39P  10.32P  13.23P  15.47P  15.22P  15.05P  16.31P  18.17P  19.65P  20.52P  20.98P  21.15P  21.08P  20.82P  
00:45 EDT8.40P  10.34P  13.25P  15.45P  15.05P  15.06P  16.32P  18.17P  19.67P  20.53P  20.99P  21.16P  21.09P  20.82P  
01:00 EDT8.40P  10.38P  13.25P  15.46P  15.21P  15.05P  16.34P  18.20P  19.68P  20.54P  20.99P  21.15P  21.09P  20.82P  
01:15 EDT8.40P  10.40P  13.34P  15.39P  15.17P  15.06P  16.36P  18.22P  19.68P  20.54P  20.99P  21.15P  21.08P  20.81P  
01:30 EDT8.41P  10.43P  13.31P  15.41P  15.26P  15.04P  16.38P  18.23P  19.68P  20.55P  20.99P  21.15P  21.08P  20.81P  
01:45 EDT8.42P  10.48P  13.41P  15.45P  15.20P  15.05P  16.39P  18.26P  19.70P  20.55P  21.00P  21.15P  21.07P  20.80P  
02:00 EDT8.43P  10.50P  13.50P  15.49P  15.22P  15.06P  16.40P  18.28P  19.72P  20.57P  21.01P  21.16P  21.07P  20.79P  
02:15 EDT8.43P  10.51P  13.53P  15.53P  15.23P  15.06P  16.41P  18.28P  19.72P  20.57P  21.00P  21.15P  21.07P  20.79P  
02:30 EDT8.45P  10.52P  13.49P  15.43P  15.20P  15.07P  16.44P  18.31P  19.75P  20.58P  21.01P  21.15P  21.07P  20.79P  
02:45 EDT8.45P  10.55P  13.59P  15.58P  15.20P  15.09P  16.47P  18.33P  19.76P  20.58P  21.02P  21.15P  21.07P  20.78P  
03:00 EDT8.47P  10.59P  13.62P  15.50P  15.17P  15.09P  16.49P  18.34P  19.78P  20.59P  21.01P  21.15P  21.07P  20.78P  
03:15 EDT8.48P  10.60P  13.56P  15.48P  15.19P  15.09P  16.51P  18.35P  19.78P  20.60P  21.02P  21.15P  21.07P  20.78P  
03:30 EDT8.50P  10.64P  13.75P  15.45P  15.14P  15.08P  16.52P  18.37P  19.80P  20.61P  21.02P  21.15P  21.06P  20.78P  
03:45 EDT8.49P  10.68P  13.79P  15.45P  15.18P  15.11P  16.54P  18.38P  19.80P  20.61P  21.02P  21.15P  21.06P  20.78P  
04:00 EDT8.52P  10.69P  13.75P  15.52P  15.10P  15.11P  16.56P  18.43P  19.82P  20.62P  21.02P  21.16P  21.06P  20.77P  
04:15 EDT8.53P  10.71P  13.82P  15.54P  15.18P  15.13P  16.58P  18.43P  19.84P  20.63P  21.03P  21.15P  21.06P  20.77P  
04:30 EDT8.56P  10.72P  13.82P  15.56P  15.15P  15.12P  16.60P  18.46P  19.82P  20.62P  21.03P  21.16P  21.06P  20.76P  
04:45 EDT8.57P  10.75P  13.84P  15.50P  15.08P  15.12P  16.63P  18.47P  19.85P  20.64P  21.04P  21.15P  21.04P  20.76P  
05:00 EDT8.59P  10.75P  13.87P  15.53P  15.16P  15.13P  16.64P  18.49P  19.86P  20.64P  21.02P  21.16P  21.04P  20.75P  
05:15 EDT8.61P  10.78P  13.85P  15.36P  15.13P  15.16P  16.66P  18.50P  19.87P  20.64P  21.03P  21.15P  21.05P  20.75P  
05:30 EDT8.62P  10.80P  13.86P  15.54P  15.10P  15.16P  16.68P  18.51P  19.89P  20.65P  21.04P  21.15P  21.05P  20.75P  
05:45 EDT8.65P  10.86P  14.00P  15.55P  15.14P  15.16P  16.70P  18.52P  19.89P  20.65P  21.05P  21.15P  21.04P  20.74P  
06:00 EDT8.68P  10.89P  14.04P  15.53P  15.11P  15.18P  16.71P  18.55P  19.91P  20.66P  21.05P  21.16P  21.04P  20.74P  
06:15 EDT8.70P  10.86P  14.04P  15.55P  15.10P  15.19P  16.74P  18.59P  19.91P  20.67P  21.04P  21.15P  21.04P  20.73P  
06:30 EDT8.73P  10.89P  14.14P  15.51P  15.13P  15.19P  16.75P  18.60P  19.92P  20.67P  21.05P  21.15P  21.04P  20.73P  
06:45 EDT8.75P  10.91P  14.16P  15.53P  15.10P  15.19P  16.78P  18.60P  19.93P  20.67P  21.05P  21.16P  21.03P  20.73P  
07:00 EDT8.77P  10.94P  14.10P  15.53P  15.13P  15.21P  16.78P  18.63P  19.94P  20.68P  21.05P  21.15P  21.03P  20.72P  
07:15 EDT8.80P  10.99P  14.18P  15.53P  15.05P  15.23P  16.81P  18.63P  19.95P  20.69P  21.06P  21.15P  20.99P  20.73P  
07:30 EDT8.83P  11.00P  14.10P  15.57P  15.05P  15.23P  16.83P  18.66P  19.96P  20.70P  21.06P  21.16P  21.03P  20.72P  
07:45 EDT8.86P  11.02P  14.30P  15.60P  15.07P  15.24P  16.86P  18.67P  19.97P  20.69P  21.06P  21.15P  21.03P  20.71P  
08:00 EDT8.88P  11.03P  14.34P  15.62P  15.06P  15.25P  16.88P  18.70P  19.98P  20.70P  21.06P  21.15P  21.01P  20.70P  
08:15 EDT8.90P  11.08P  14.34P  15.50P  15.08P  15.27P  16.88P  18.71P  19.98P  20.70P  21.07P  21.15P  21.02P  20.70P  
08:30 EDT8.93P  11.07P  14.38P  15.57P  15.10P  15.28P  16.89P  18.73P  19.99P  20.71P  21.07P  21.15P  21.01P  20.69P  
08:45 EDT8.95P  11.11P  14.34P  15.48P  15.06P  15.29P  16.92P  18.74P  20.02P  20.71P  21.08P  21.14P  21.00P  20.69P  
09:00 EDT8.98P  11.15P  14.40P  15.56P  15.08P  15.29P  16.95P  18.74P  20.00P  20.72P  21.07P  21.15P  21.00P  20.69P  
09:15 EDT9.00P  11.16P  14.47P  15.56P  15.03P  15.31P  16.97P  18.78P  20.01P  20.73P  21.08P  21.15P  21.00P  20.68P  
09:30 EDT9.01P  11.15P  14.51P  15.56P  15.06P  15.30P  16.99P  18.79P  20.03P  20.74P  21.08P  21.15P  20.99P  20.68P  
09:45 EDT9.04P  11.14P  14.47P  15.54P  15.06P  15.33P  17.00P  18.80P  20.01P  20.74P  21.07P  21.15P  21.00P  20.67P  
10:00 EDT9.06P  11.23P  14.46P  15.53P  15.05P  15.34P  17.01P  18.82P  20.05P  20.74P  21.08P  21.15P  21.00P  20.66P  
10:15 EDT9.06P  11.25P  14.57P  15.50P  15.07P  15.36P  17.04P  18.82P  20.06P  20.75P  21.08P  21.14P  20.99P  20.66P  
10:30 EDT9.09P  11.22P  14.53P  15.53P  15.05P  15.35P  17.07P  18.85P  20.08P  20.75P  21.08P  21.15P  20.99P  20.66P  
10:45 EDT9.09P  11.26P  14.59P  15.47P  15.02P  15.39P  17.09P  18.86P  20.10P  20.75P  21.07P  21.15P  20.99P  20.66P  
11:00 EDT9.12P  11.34P  14.57P  15.54P  15.05P  15.39P  17.11P  18.86P  20.11P  20.77P  21.07P  21.14P  20.99P  20.64P  
11:15 EDT9.13P  11.36P  14.61P  15.56P  15.07P  15.42P  17.12P  18.90P  20.10P  20.76P  21.09P  21.14P  20.99P  20.65P  
11:30 EDT9.15P  11.37P  14.60P  15.54P  15.04P  15.43P  17.14P  18.92P  20.12P  20.77P  21.09P  21.15P  20.99P  20.64P  
11:45 EDT9.17P  11.39P  14.70P  15.46P  15.05P  15.45P  17.18P  18.93P  20.13P  20.77P  21.09P  21.15P  20.99P  20.64P  
12:00 EDT9.17P  11.43P  14.63P  15.49P  15.03P  15.47P  17.19P  18.95P  20.13P  20.77P  21.10P  21.14P  20.97P  20.63P  
12:15 EDT9.19P  11.42P  14.75P  15.52P  15.00P  15.48P  17.22P  18.97P  20.14P  20.79P  21.10P  21.15P  20.98P  20.63P  
12:30 EDT9.20P  11.52P  14.70P  15.50P  14.97P  15.48P  17.24P  18.98P  20.14P  20.77P  21.09P  21.15P  20.97P  20.63P  
12:45 EDT9.21P  11.53P  14.57P  15.54P  15.00P  15.53P  17.24P  19.01P  20.17P  20.81P  21.10P  21.15P  20.97P  20.62P  
13:00 EDT9.24P  11.54P  14.78P  15.51P  15.01P  15.52P  17.28P  19.01P  20.18P  20.80P  21.11P  21.15P  20.95P  20.62P  
13:15 EDT9.25P  11.56P  14.80P  15.54P  15.04P  15.55P  17.29P  19.05P  20.18P  20.81P  21.10P  21.14P  20.98P  20.61P  
13:30 EDT9.27P  11.59P  14.82P  15.49P  15.02P  15.55P  17.32P  19.06P  20.20P  20.82P  21.10P  21.16P  20.95P  20.62P  
13:45 EDT9.29P  11.61P  14.81P  15.52P  15.02P  15.58P  17.34P  19.06P  20.20P  20.82P  21.09P  21.15P  20.97P  20.60P  
14:00 EDT9.30P  11.64P  14.88P  15.54P  15.01P  15.59P  17.36P  19.08P  20.21P  20.82P  21.12P  21.11P  20.93P  20.60P  
14:15 EDT9.30P  11.65P  14.86P  15.48P  15.02P  15.60P  17.37P  19.08P  20.22P  20.83P  21.11P  21.15P  20.96P  20.60P  
14:30 EDT9.31P  11.71P  14.83P  15.45P  15.02P  15.62P  17.41P  19.11P  20.22P  20.83P  21.11P  21.14P  20.95P  20.59P  
14:45 EDT9.34P  11.68P  14.93P  15.51P  15.02P  15.64P  17.42P  19.13P  20.25P  20.81P  21.11P  21.14P  20.92P  20.59P  
15:00 EDT9.36P  11.71P  14.91P  15.48P  15.02P  15.66P  17.43P  19.13P  20.24P  20.84P  21.12P  21.14P  20.93P  20.58P  
15:15 EDT9.38P  11.75P  14.91P  15.42P  15.00P  15.68P  17.45P  19.15P  20.26P  20.84P  21.12P  21.14P  20.95P  20.58P  
15:30 EDT9.39P  11.79P  14.96P  15.52P  14.96P  15.70P  17.47P  19.18P  20.26P  20.86P  21.12P  21.15P  20.92P  20.57P  
15:45 EDT9.40P  11.78P  15.04P  15.47P  14.97P  15.70P  17.50P  19.18P  20.27P  20.85P  21.12P  21.15P  20.91P  20.57P  
16:00 EDT9.43P  11.82P  15.03P  15.48P  15.00P  15.73P  17.49P  19.21P  20.28P  20.84P  21.12P  21.14P  20.95P  20.57P  
16:15 EDT9.40P  11.86P  15.02P  15.43P  15.01P  15.73P  17.53P  19.20P  20.29P  20.86P  21.13P  21.14P  20.93P  20.56P  
16:30 EDT9.46P  11.86P  15.03P  15.45P  14.93P  15.75P  17.55P  19.21P  20.30P  20.88P  21.13P  21.13P  20.90P  20.55P  
16:45 EDT9.48P  11.90P  15.09P  15.42P  14.91P  15.77P  17.58P  19.25P  20.31P  20.88P  21.13P  21.13P  20.93P  20.55P  
17:00 EDT9.49P  11.95P  15.12P  15.38P  14.96P  15.78P  17.61P  19.25P  20.32P  20.88P  21.13P  21.14P  20.93P  20.54P  
17:15 EDT9.50P  11.96P  15.12P  15.43P  14.97P  15.81P  17.60P  19.26P  20.32P  20.88P  21.13P  21.13P  20.90P  20.54P  
17:30 EDT9.53P  11.94P  15.09P  15.43P   15.81P  17.64P  19.26P  20.33P  20.89P  21.13P  21.13P  20.92P  20.53P  
17:45 EDT9.57P  12.02P  15.14P  15.42P   15.85P  17.66P  19.28P  20.34P  20.89P  21.13P  21.13P  20.92P  20.53P  
18:00 EDT9.59P  12.02P  15.09P  15.42P   15.85P  17.67P  19.29P  20.35P  20.88P  21.13P  21.12P  20.91P  20.53P  
18:15 EDT9.61P  12.06P  15.11P  15.37P  15.00P  15.86P  17.69P  19.33P  20.35P  20.89P  21.13P  21.13P  20.91P  20.52P  
18:30 EDT9.64P  12.06P  15.14P  15.37P  15.01P  15.88P  17.70P  19.34P  20.37P  20.90P  21.13P  21.12P  20.91P  20.51P  
18:45 EDT9.67P  12.10P  15.21P  15.40P  15.00P  15.89P  17.73P  19.34P  20.38P  20.90P  21.14P  21.12P  20.91P  20.50P  
19:00 EDT9.71P  12.12P  15.19P  15.40P  15.00P  15.91P  17.75P  19.37P  20.36P  20.91P  21.14P  21.11P  20.90P  20.50P  
19:15 EDT9.75P  12.13P  15.13P  15.38P  15.01P  15.94P  17.77P  19.36P  20.38P  20.90P  21.14P  21.12P  20.89P  20.50P  
19:30 EDT9.77P  12.24P  15.26P  15.35P  14.99P  15.97P  17.79P  19.39P  20.39P  20.92P  21.14P  21.12P  20.89P  20.49P  
19:45 EDT9.80P  12.29P  15.19P  15.30P  15.00P  15.98P  17.81P  19.38P  20.39P  20.92P  21.15P  21.11P  20.90P  20.49P  
20:00 EDT9.84P  12.34P  15.28P  15.36P  14.98P  15.98P  17.82P  19.40P  20.40P  20.91P  21.13P  21.11P  20.89P  20.48P  
20:15 EDT9.83P  12.33P  15.26P  15.33P  15.00P  16.00P  17.84P  19.42P  20.40P  20.93P  21.14P  21.11P  20.88P  20.48P  
20:30 EDT9.89P  12.36P  15.33P  15.35P  15.01P  16.02P  17.84P  19.44P  20.41P  20.93P  21.14P  21.11P  20.88P  20.47P  
20:45 EDT9.93P  12.41P  15.24P  15.34P  15.00P  16.05P  17.89P  19.46P  20.42P  20.93P  21.15P  21.11P  20.87P  20.46P  
21:00 EDT9.95P  12.48P  15.30P  15.28P  15.02P  16.05P  17.91P  19.46P  20.42P  20.93P  21.15P  21.11P  20.88P  20.46P  
21:15 EDT9.99P  12.53P  15.30P  15.32P  15.00P  16.07P  17.91P  19.46P  20.44P  20.95P  21.14P  21.10P  20.87P  20.46P  
21:30 EDT10.00P  12.56P  15.24P  15.30P  15.01P  16.08P  17.94P  19.49P  20.45P  20.94P  21.14P  21.11P  20.86P  20.45P  
21:45 EDT10.04P  12.60P  15.31P  15.32P  15.03P  16.09P  17.96P  19.50P  20.46P  20.95P  21.15P  21.11P  20.86P  20.44P  
22:00 EDT10.05P  12.55P  15.36P  15.29P  15.02P  16.12P  17.97P  19.52P  20.45P  20.95P  21.14P  21.10P  20.86P  20.44P  
22:15 EDT10.06P  12.68P  15.26P  15.31P  15.01P  16.14P  18.00P  19.53P  20.46P  20.95P  21.14P  21.10P  20.86P  20.43P  
22:30 EDT10.10P  12.82P  15.40P  15.30P  15.02P  16.16P  18.00P  19.56P  20.47P  20.96P  21.14P  21.10P  20.86P  20.43P  
22:45 EDT10.13P  12.82P  15.41P  15.30P  15.02P  16.17P  18.02P  19.56P  20.47P  20.96P  21.15P  21.09P  20.85P  20.43P  
23:00 EDT10.15P  12.98P  15.30P  15.28P  15.01P  16.17P  18.07P  19.58P  20.48P  20.96P  21.14P  21.09P  20.85P  20.42P  
23:15 EDT10.18P  13.03P  15.44P  15.28P  15.03P  16.21P  18.05P  19.58P  20.49P  20.97P  21.15P  21.09P  20.84P  20.41P  
23:30 EDT10.21P  12.95P  15.40P  15.27P  15.03P  16.24P  18.08P  19.60P  20.50P  20.97P  21.15P  21.09P  20.84P  20.41P  
23:45 EDT10.25P  13.07P  15.38P  15.29P  15.03P  16.24P  18.10P  19.61P  20.51P  20.97P  21.15P  21.09P  20.83P  20.40P  
COUNT9696969693969696969696969696
MAX10.2513.0715.4415.6215.2716.2418.1019.6120.5120.9721.1521.1621.0920.83
MIN8.3810.2713.1515.2714.9115.0316.2518.1119.6220.5120.9721.0920.8320.40

Explanation
  P  Provisional data subject to revision.